Change the Weather History Date:

Monday, March 31, 2014

  Actual Average (KISN) Record (KISN)
Temperature  
Mean Temperature 16 °F 37 °F  
Max Temperature 23 °F 49 °F 77 °F (2004)
Min Temperature 8 °F 24 °F -8 °F (1936)
Degree Days  
Heating Degree Days 50 28  
Month to date heating degree days 1106  
Since 1 July heating degree days 7875  
Cooling Degree Days 0 0  
Month to date cooling degree days 0  
Year to date cooling degree days 0  
Moisture  
Dew Point 5 °F    
Average Humidity 65    
Maximum Humidity 100    
Minimum Humidity 39    
Precipitation  
Precipitation 0.00 in 0.03 in 0.46 in (1920)
Month to date precipitation 0.71  
Year to date precipitation 1.69  
Sea Level Pressure  
Sea Level Pressure 30.12 in    
Wind  
Wind Speed 21 mph (NNE)    
Max Wind Speed 32 mph    
Max Gust Speed 40 mph    
Visibility 10 miles    
Events      
T = Trace of Precipitation, MM = Missing Value Source: NWS Daily Summary

Daily Weather History Graph

Daily Weather History Graph

Search for Another Location

Airport or City:

Trip Planner

Search our weather history database for the weather conditions in past years. The results will help you decide how hot, cold, wet, or windy it might be!

Date:

Astronomy

Mar. 31, 2014 Rise Set
Actual Time 7:31 AM CDT 8:20 PM CDT
Civil Twilight 6:59 AM CDT 8:52 PM CDT
Nautical Twilight 6:22 AM CDT 9:30 PM CDT
Astronomical Twilight 5:42 AM CDT 10:10 PM CDT
Moon 7:51 AM CDT (3/31) 9:49 PM CDT (3/31)
Length of Visible Light 13h 52m
Length of Day
12h 49m
New Moon, 1% of the Moon is Illuminated
Mar 31
New Moon
Apr 7
First Quarter
Apr 15
Full
Apr 22
Last Quarter
Apr 29
New

Hourly Weather History & Observations

Time (CDT) Temp. Windchill Dew Point Humidity Pressure Visibility Wind Dir Wind Speed Gust Speed Precip Events Conditions
12:15 AM 17.6 °F -1.9 °F 17.6 °F 100% 30.01 in 10.0 mi ENE 29.9 mph 38.0 mph N/A   Partly Cloudy
12:35 AM 17.6 °F -0.6 °F 15.8 °F 93% 30.02 in 10.0 mi ENE 25.3 mph 35.7 mph N/A   Clear
12:55 AM 15.8 °F -3.7 °F 15.8 °F 100% 30.01 in 10.0 mi NE 27.6 mph 33.4 mph N/A   Clear
1:15 AM 15.8 °F -4.4 °F 14.0 °F 93% 30.01 in 10.0 mi ENE 29.9 mph 35.7 mph N/A   Scattered Clouds
1:35 AM 15.8 °F -2.7 °F 14.0 °F 93% 30.01 in 10.0 mi NE 24.2 mph 35.7 mph N/A   Scattered Clouds
1:55 AM 15.8 °F -3.1 °F 10.4 °F 79% 30.02 in 10.0 mi NE 25.3 mph 33.4 mph N/A   Partly Cloudy
2:15 AM 15.8 °F -4.7 °F 10.4 °F 79% 30.02 in 10.0 mi NE 31.1 mph 36.8 mph N/A   Clear
2:35 AM 14.0 °F -7.4 °F 10.4 °F 86% 30.02 in 10.0 mi NE 32.2 mph 40.3 mph N/A   Clear
2:55 AM 14.0 °F -4.7 °F 10.4 °F 86% 30.03 in 10.0 mi NE 23.0 mph 31.1 mph N/A   Partly Cloudy
3:15 AM 14.0 °F -5.1 °F 10.4 °F 86% 30.03 in 10.0 mi NE 24.2 mph 33.4 mph N/A   Mostly Cloudy
3:35 AM 14.0 °F -5.1 °F 10.4 °F 86% 30.03 in 10.0 mi NE 24.2 mph 35.7 mph N/A   Overcast
3:55 AM 14.0 °F -4.3 °F 8.6 °F 79% 30.03 in 10.0 mi NE 21.9 mph 34.5 mph N/A   Mostly Cloudy
4:15 AM 12.2 °F -8.2 °F 8.6 °F 85% 30.05 in 10.0 mi ENE 26.5 mph 32.2 mph N/A   Scattered Clouds
4:35 AM 12.2 °F -6.7 °F 6.8 °F 79% 30.05 in 10.0 mi ENE 21.9 mph 32.2 mph N/A   Partly Cloudy
4:55 AM 12.2 °F -7.1 °F 6.8 °F 79% 30.06 in 10.0 mi NE 23.0 mph 29.9 mph N/A   Mostly Cloudy
5:15 AM 12.2 °F -7.5 °F 5.0 °F 73% 30.07 in 10.0 mi NE 24.2 mph 29.9 mph N/A   Overcast
5:35 AM 12.2 °F -6.7 °F 3.2 °F 67% 30.08 in 10.0 mi NE 21.9 mph 27.6 mph N/A   Overcast
5:55 AM 10.4 °F -8.2 °F 3.2 °F 73% 30.10 in 10.0 mi NE 19.6 mph 29.9 mph N/A   Overcast
6:15 AM 10.4 °F -8.6 °F 3.2 °F 73% 30.11 in 10.0 mi NE 20.7 mph 25.3 mph N/A   Overcast
6:35 AM 10.4 °F -7.2 °F 3.2 °F 73% 30.13 in 10.0 mi NNE 17.3 mph 25.3 mph N/A   Overcast
6:55 AM 10.4 °F -7.7 °F 3.2 °F 73% 30.13 in 10.0 mi NNE 18.4 mph 28.8 mph N/A   Overcast
7:15 AM 10.4 °F -6.6 °F 3.2 °F 73% 30.14 in 10.0 mi NNE 16.1 mph 23.0 mph N/A   Overcast
7:35 AM 8.6 °F -10.0 °F 1.4 °F 73% 30.14 in 10.0 mi NE 18.4 mph 26.5 mph N/A   Overcast
7:55 AM 8.6 °F -9.5 °F 1.4 °F 73% 30.15 in 10.0 mi NNE 17.3 mph 24.2 mph N/A   Overcast
8:15 AM 8.6 °F -9.5 °F 1.4 °F 73% 30.15 in 10.0 mi NNE 17.3 mph 26.5 mph N/A   Overcast
8:35 AM 8.6 °F -9.5 °F 1.4 °F 73% 30.15 in 10.0 mi NNE 17.3 mph 21.9 mph N/A   Overcast
8:55 AM 8.6 °F -9.5 °F -0.4 °F 67% 30.15 in 10.0 mi NNE 17.3 mph 26.5 mph N/A   Overcast
9:15 AM 8.6 °F -10.0 °F 1.4 °F 73% 30.15 in 10.0 mi NNE 18.4 mph - N/A   Overcast
9:35 AM 10.4 °F -8.6 °F -0.4 °F 62% 30.16 in 10.0 mi NNE 20.7 mph 24.2 mph N/A   Overcast
9:55 AM 10.4 °F -6.6 °F -0.4 °F 62% 30.16 in 10.0 mi NNE 16.1 mph 23.0 mph N/A   Overcast
10:15 AM 10.4 °F -7.7 °F 1.4 °F 67% 30.17 in 10.0 mi NNE 18.4 mph - N/A   Overcast
10:35 AM 10.4 °F -5.4 °F 1.4 °F 67% 30.17 in 10.0 mi North 13.8 mph - N/A   Overcast
10:55 AM 10.4 °F -6.0 °F 1.4 °F 67% 30.18 in 10.0 mi NNE 15.0 mph 24.2 mph N/A   Overcast
11:15 AM 10.4 °F -6.6 °F 1.4 °F 67% 30.18 in 10.0 mi North 16.1 mph 21.9 mph N/A   Overcast
11:35 AM 12.2 °F -5.8 °F 1.4 °F 62% 30.17 in 10.0 mi North 19.6 mph 25.3 mph N/A   Mostly Cloudy
11:55 AM 14.0 °F -2.5 °F 1.4 °F 57% 30.17 in 10.0 mi North 17.3 mph 24.2 mph N/A   Partly Cloudy
12:15 PM 14.0 °F -2.0 °F 1.4 °F 57% 30.17 in 10.0 mi North 16.1 mph 25.3 mph N/A   Clear
12:35 PM 15.8 °F -0.6 °F 1.4 °F 53% 30.17 in 10.0 mi North 18.4 mph 24.2 mph N/A   Clear
12:55 PM 17.6 °F 1.3 °F 5.0 °F 58% 30.16 in 10.0 mi North 19.6 mph 24.2 mph N/A   Clear
1:15 PM 17.6 °F 2.7 °F 3.2 °F 53% 30.15 in 10.0 mi North 16.1 mph 27.6 mph N/A   Clear
1:35 PM 17.6 °F 1.7 °F 5.0 °F 58% 30.15 in 10.0 mi North 18.4 mph 24.2 mph N/A   Clear
1:55 PM 19.4 °F 3.6 °F 5.0 °F 54% 30.15 in 10.0 mi North 19.6 mph 25.3 mph N/A   Clear
2:15 PM 17.6 °F 1.3 °F 5.0 °F 58% 30.15 in 10.0 mi North 19.6 mph 24.2 mph N/A   Clear
2:35 PM 19.4 °F 3.6 °F 5.0 °F 54% 30.14 in 10.0 mi NNE 19.6 mph 25.3 mph N/A   Clear
2:55 PM 19.4 °F 5.0 °F 5.0 °F 54% 30.14 in 10.0 mi NNE 16.1 mph 24.2 mph N/A   Clear
3:15 PM 19.4 °F 3.6 °F 5.0 °F 54% 30.14 in 10.0 mi North 19.6 mph 24.2 mph N/A   Clear
3:35 PM 19.4 °F 3.2 °F 5.0 °F 54% 30.14 in 10.0 mi North 20.7 mph - N/A   Clear
3:55 PM 19.4 °F 3.6 °F 5.0 °F 54% 30.13 in 10.0 mi NNE 19.6 mph 24.2 mph N/A   Clear
4:15 PM 21.2 °F 6.0 °F 5.0 °F 50% 30.13 in 10.0 mi North 19.6 mph 24.2 mph N/A   Clear
4:35 PM 23.0 °F 8.0 °F 5.0 °F 46% 30.13 in 10.0 mi NNE 20.7 mph 28.8 mph N/A   Clear
4:55 PM 23.0 °F 8.7 °F 3.2 °F 43% 30.12 in 10.0 mi NNE 18.4 mph 26.5 mph N/A   Clear
5:15 PM 23.0 °F 9.2 °F 3.2 °F 43% 30.12 in 10.0 mi NNE 17.3 mph 24.2 mph N/A   Clear
5:35 PM 23.0 °F 8.7 °F 5.0 °F 46% 30.13 in 10.0 mi North 18.4 mph 23.0 mph N/A   Clear
5:55 PM 23.0 °F 9.6 °F 3.2 °F 43% 30.14 in 10.0 mi North 16.1 mph 19.6 mph N/A   Clear
6:15 PM 23.0 °F 9.2 °F 1.4 °F 39% 30.14 in 10.0 mi NNE 17.3 mph 21.9 mph N/A   Clear
6:35 PM 19.4 °F 6.6 °F 1.4 °F 46% 30.14 in 10.0 mi North 12.7 mph - N/A   Clear
6:55 PM 19.4 °F 6.0 °F 1.4 °F 46% 30.15 in 10.0 mi NNE 13.8 mph - N/A   Clear
7:15 PM 19.4 °F 6.0 °F 3.2 °F 49% 30.14 in 10.0 mi NNE 13.8 mph 20.7 mph N/A   Clear
7:35 PM 19.4 °F 6.0 °F 1.4 °F 46% 30.14 in 10.0 mi NNE 13.8 mph - N/A   Clear
7:55 PM 17.6 °F 4.3 °F 1.4 °F 49% 30.14 in 10.0 mi NNE 12.7 mph - N/A   Clear
8:15 PM 17.6 °F 5.7 °F 1.4 °F 49% 30.14 in 10.0 mi NNE 10.4 mph - N/A   Clear
8:35 PM 15.8 °F 3.4 °F 3.2 °F 58% 30.15 in 10.0 mi NNE 10.4 mph - N/A   Clear
8:55 PM 15.8 °F 5.1 °F 3.2 °F 58% 30.15 in 10.0 mi NNE 8.1 mph - N/A   Clear
9:15 PM 15.8 °F 5.1 °F 3.2 °F 58% 30.15 in 10.0 mi NE 8.1 mph - N/A   Clear
9:35 PM 14.0 °F 2.9 °F 3.2 °F 62% 30.15 in 10.0 mi NE 8.1 mph - N/A   Clear
9:55 PM 14.0 °F 1.2 °F 1.4 °F 57% 30.16 in 10.0 mi NE 10.4 mph 16.1 mph N/A   Clear
10:15 PM 14.0 °F 1.2 °F 3.2 °F 62% 30.15 in 10.0 mi NE 10.4 mph - N/A   Clear
10:35 PM 12.2 °F 0.7 °F 3.2 °F 67% 30.15 in 10.0 mi NE 8.1 mph - N/A   Clear
10:55 PM 12.2 °F 0.7 °F 5.0 °F 73% 30.15 in 10.0 mi NE 8.1 mph - N/A   Clear
11:15 PM 12.2 °F -0.2 °F 1.4 °F 62% 30.15 in 10.0 mi NE 9.2 mph - N/A   Clear
11:35 PM 10.4 °F 2.2 °F 1.4 °F 67% 30.15 in 10.0 mi NNE 4.6 mph - N/A   Clear
11:55 PM 10.4 °F 4.0 °F 1.4 °F 67% 30.15 in 10.0 mi NNE 3.5 mph - N/A   Clear